This is the latest recevied weather packets stored in our database for station/object ON7AMI-5. If no packets are shown the sender has not sent any weather packets the latest 1 day(s).
| Time | Temp. | Humidity | Pressure | Rain* | Wind** | Luminosity | Snow |
|---|---|---|---|---|---|---|---|
| 1777986035 | 13.89° C | 97% | 1011.6 hPa | 0 mm | 2.24 m/s, 102° | - | - |
| 1777985735 | 13.89° C | 97% | 1011.6 hPa | 0 mm | 1.34 m/s, 303° | - | - |
| 1777985435 | 13.89° C | 97% | 1011.6 hPa | 0 mm | 1.34 m/s, 258° | - | - |
| 1777985134 | 13.89° C | 97% | 1011.6 hPa | 0 mm | 1.79 m/s, 134° | - | - |
| 1777984835 | 13.89° C | 97% | 1011.6 hPa | 0 mm | 3.58 m/s, 35° | - | - |
| 1777984535 | 13.89° C | 97% | 1011.6 hPa | 0 mm | 4.02 m/s, 50° | - | - |
| 1777984236 | 14.44° C | 97% | 1011.6 hPa | 0 mm | 2.24 m/s, 11° | - | - |
| 1777983935 | 13.89° C | 97% | 1011.6 hPa | 0 mm | 0.89 m/s, 318° | - | - |
| 1777983635 | 13.33° C | 97% | 1011.7 hPa | 0 mm | 1.79 m/s, 348° | - | - |
| 1777983335 | 12.78° C | 97% | 1011.7 hPa | 0 mm | 1.34 m/s, 67° | - | - |
| 1777983035 | 12.78° C | 97% | 1011.6 hPa | 0 mm | 0.89 m/s, 26° | - | - |
| 1777982735 | 12.78° C | 97% | 1011.7 hPa | 0 mm | 2.24 m/s, 46° | - | - |
| 1777982435 | 12.78° C | 97% | 1011.7 hPa | 0 mm | 2.24 m/s, 29° | - | - |
| 1777982129 | 13.33° C | 97% | 1011.7 hPa | 0 mm | 2.68 m/s, 16° | - | - |
| 1777981835 | 12.78° C | 98% | 1011.7 hPa | 0 mm | 2.24 m/s, 353° | - | - |
| 1777981536 | 13.33° C | 98% | 1011.7 hPa | 0 mm | 1.79 m/s, 37° | - | - |
| 1777981236 | 12.78° C | 98% | 1011.8 hPa | 0 mm | 1.34 m/s, 36° | - | - |
| 1777980929 | 12.78° C | 98% | 1011.9 hPa | 0 mm | 1.79 m/s, 24° | - | - |
| 1777980629 | 12.78° C | 98% | 1012 hPa | 0 mm | 4.47 m/s, 42° | - | - |
| 1777980335 | 12.78° C | 98% | 1012 hPa | 0 mm | 1.79 m/s, 294° | - | - |
| 1777980035 | 12.22° C | 98% | 1012 hPa | 0 mm | 1.34 m/s, 12° | - | - |
| 1777979736 | 12.78° C | 98% | 1012 hPa | 0 mm | 1.34 m/s, 12° | - | - |
| 1777979435 | 12.22° C | 98% | 1012 hPa | 0 mm | 0.89 m/s, 20° | - | - |
| 1777979129 | 12.22° C | 98% | 1012 hPa | 0 mm | 2.24 m/s, 47° | - | - |
| 1777978835 | 12.22° C | 98% | 1012 hPa | 0 mm | 4.92 m/s, 24° | - | - |
* Rain latest hour (hover to see other rain measurements)
** Current wind speed in m/s (hover to see current wind gust speed)